Tracking 31013 objects as of 10-Jul-2025
HD Live streaming from Space Station
objects crossing your sky now

FENGYUN 1C DEB

Track FENGYUN 1C DEB now!
10-day predictions


NORAD ID: 30561
Int'l Code: 1999-025ALB
Perigee: 819.9 km
Apogee: 906.0 km
Inclination: 98.7 °
Period: 102.1 minutes
Semi major axis: 7233 km
RCS: 0.0205 m2 (small)
Launch date: May 10, 1999
Source: People's Republic of China (PRC)
Launch site: Taiyaun Space Center, China (TSC)

Note: This is SATELLITE DEBRIS
Your satellite tracking list
Your tracking list is empty




NASA's NSSDC Master Catalog

Two Line Element Set (TLE):
1 30561U 99025ALB 25190.96529140  .00000323  00000-0  20027-3 0  9995
2 30561  98.7217 197.4970 0059512 195.1324 195.1111 14.11039665947819
Source of the keplerian elements: AFSPC